Hourly Data Report for September 17, 2017

All times are specified in Local Standard Time (LST). Add 1 hour to adjust for Daylight Saving Time where and when it is observed.

KITCHENER/WATERLOO
ONTARIO

43°27'39.000" N
80°22'43.000" W
321.60 m
6144239
71368
YKF

Download Data

Hourly Data (September 2017)
Hourly Data Report for September 17, 2017
Temp Definition
°C
Dew Point Temp Definition
°C
Rel Hum Definition
%
Wind Dir Definition
10's deg

Wind Spd Definition
km/h
Visibility Definition
km
Stn Press Definition
kPa
Hmdx Definition


Wind Chill Definition


Weather Definition


TIME
00:00 Legend Double Dagger 14.0 13.9 99 LegendMM 4 0.4 98.31     Fog
01:00 Legend Double Dagger 13.3 13.2 99 33 4 0.8 98.28     Fog
02:00 Legend Double Dagger 12.4 12.3 99 LegendMM 4 0.4 98.33     Fog
03:00 Legend Double Dagger 12.2 12.1 99 8 4 3.2 98.30     Fog
04:00 Legend Double Dagger 11.0 10.9 99   0 1.2 98.29     Fog
05:00 Legend Double Dagger 11.0 11.0 100   0 3.2 98.30     Fog
06:00 Legend Double Dagger 12.0 12.0 100 35 4 1.0 98.32     Fog
07:00 Legend Double Dagger 12.3 12.3 100 35 5 3.2 98.35     Fog
08:00 Legend Double Dagger 15.7 15.6 99   0 6.4 98.33     Fog
09:00 Legend Double Dagger 18.9 18.6 98 LegendMM 4 4.8 98.33     Fog
10:00 Legend Double Dagger 22.9 18.2 75 17 5 16.1 98.33 29   LegendNANA
11:00 Legend Double Dagger 25.3 17.8 63 LegendMM 11 14.5 98.30 31   LegendNANA
12:00 Legend Double Dagger 26.2 17.6 59 20 11 16.1 98.25 32   LegendNANA
13:00 Legend Double Dagger 26.8 16.7 53 21 5 14.5 98.17 32   LegendNANA
14:00 Legend Double Dagger 26.6 16.9 55 22 9 16.1 98.12 32   LegendNANA
15:00 Legend Double Dagger 26.9 16.3 52 18 8 16.1 98.09 32   LegendNANA
16:00 Legend Double Dagger 27.4 16.4 50 19 17 16.1 98.05 32   LegendNANA
17:00 Legend Double Dagger 25.9 17.7 60 16 17 16.1 98.04 32   LegendNANA
18:00 Legend Double Dagger 24.2 17.1 64 16 13 16.1 98.04 30   LegendNANA
19:00 Legend Double Dagger 19.7 16.4 81 17 4 9.7 98.08     Haze
20:00 Legend Double Dagger 18.1 15.8 86 16 9 16.1 98.09     LegendNANA
21:00 Legend Double Dagger 17.3 16.2 93   0 16.1 98.11     LegendNANA
22:00 Legend Double Dagger 15.1 14.5 96 8 5 16.1 98.13     LegendNANA
23:00 Legend Double Dagger 14.8 14.5 98   0 4.8 98.11     Fog

Notes on Data Quality.

Legend

  • E = Estimated
  • M = Missing
  • NA = Not Available
  • ‡ = Partner data that is not subject to review by the National Climate Archives
Date modified: